• In Uzbekistan
  • List of Countries
  • For 7 days
  • Water Temperature
  • Satellite Maps
  • Weather Map
  • Weather Widgets
  • user-avatar
    Login

    Hourly Weather North-Horr

    Today, 20 January, Saturday

    Time Temperature Precipitation Wind Pressure Humidity
    00:00 +33°C° 0 mm 3 mps 724 mmHg 36%
    01:00 +33°C° 0 mm 3 mps 724 mmHg 37%
    02:00 +31°C° 0 mm 2 mps 723 mmHg 37%
    03:00 +31°C° 0 mm 2 mps 724 mmHg 38%
    04:00 +31°C° 0 mm 3 mps 724 mmHg 38%
    05:00 +30°C° 0 mm 3 mps 724 mmHg 39%
    06:00 +32°C° 0 mm 5 mps 725 mmHg 38%
    07:00 +33°C° 0 mm 6 mps 725 mmHg 37%
    08:00 +34°C° 0 mm 8 mps 726 mmHg 36%
    09:00 +35°C° 0 mm 8 mps 726 mmHg 34%
    10:00 +38°C° 0 mm 8 mps 726 mmHg 31%
    11:00 +39°C° 0 mm 8 mps 725 mmHg 29%
    12:00 +39°C° 0 mm 8 mps 725 mmHg 28%
    13:00 +40°C° 0 mm 8 mps 724 mmHg 26%
    14:00 +40°C° 0 mm 7 mps 723 mmHg 25%
    15:00 +40°C° 0 mm 7 mps 723 mmHg 25%
    16:00 +39°C° 0 mm 7 mps 723 mmHg 26%
    17:00 +39°C° 0 mm 7 mps 722 mmHg 26%
    18:00 +38°C° 0 mm 7 mps 723 mmHg 27%
    19:00 +38°C° 0 mm 6 mps 723 mmHg 29%
    20:00 +36°C° 0 mm 6 mps 723 mmHg 30%
    21:00 +35°C° 0 mm 5 mps 724 mmHg 31%
    22:00 +35°C° 0 mm 5 mps 724 mmHg 33%
    23:00 +34°C° 0 mm 5 mps 724 mmHg 34%

    Tomorrow, 21 January, Sunday

    Time Temperature Precipitation Wind Pressure Humidity
    00:00 +33°C° 0 mm 4 mps 724 mmHg 35%
    01:00 +33°C° 0 mm 4 mps 723 mmHg 36%
    02:00 +32°C° 0 mm 4 mps 723 mmHg 37%
    03:00 +31°C° 0 mm 3 mps 723 mmHg 37%
    04:00 +30°C° 0 mm 3 mps 723 mmHg 38%
    05:00 +30°C° 0 mm 3 mps 724 mmHg 38%
    06:00 +32°C° 0 mm 4 mps 724 mmHg 34%
    07:00 +33°C° 0 mm 5 mps 725 mmHg 31%
    08:00 +35°C° 0 mm 6 mps 726 mmHg 27%
    09:00 +36°C° 0 mm 7 mps 726 mmHg 25%
    10:00 +38°C° 0 mm 7 mps 726 mmHg 23%
    11:00 +40°C° 0 mm 8 mps 725 mmHg 20%
    12:00 +40°C° 0 mm 8 mps 724 mmHg 19%
    13:00 +41°C° 0 mm 8 mps 723 mmHg 18%
    14:00 +41°C° 0 mm 7 mps 723 mmHg 16%
    15:00 +41°C° 0 mm 7 mps 722 mmHg 16%
    16:00 +41°C° 0 mm 7 mps 722 mmHg 16%
    17:00 +40°C° 0 mm 7 mps 722 mmHg 15%
    18:00 +39°C° 0 mm 7 mps 722 mmHg 17%
    19:00 +38°C° 0 mm 7 mps 723 mmHg 19%
    20:00 +36°C° 0 mm 6 mps 724 mmHg 21%
    21:00 +35°C° 0 mm 6 mps 724 mmHg 24%
    22:00 +35°C° 0 mm 6 mps 724 mmHg 26%
    23:00 +34°C° 0 mm 6 mps 724 mmHg 29%

    Day after tomorrow, 22 January, Monday

    Time Temperature Precipitation Wind Pressure Humidity
    00:00 +33°C° 0 mm 5 mps 723 mmHg 29%
    01:00 +33°C° 0 mm 5 mps 723 mmHg 30%
    02:00 +32°C° 0 mm 4 mps 723 mmHg 31%
    03:00 +30°C° 0 mm 4 mps 723 mmHg 31%
    04:00 +30°C° 0 mm 3 mps 723 mmHg 32%
    05:00 +29°C° 0 mm 3 mps 724 mmHg 33%
    06:00 +30°C° 0 mm 5 mps 725 mmHg 31%
    07:00 +33°C° 0 mm 6 mps 725 mmHg 29%
    08:00 +34°C° 0 mm 8 mps 726 mmHg 27%
    09:00 +35°C° 0 mm 8 mps 726 mmHg 24%
    10:00 +37°C° 0 mm 8 mps 726 mmHg 21%
    11:00 +39°C° 0 mm 9 mps 726 mmHg 19%
    12:00 +39°C° 0 mm 8 mps 724 mmHg 18%
    13:00 +40°C° 0 mm 7 mps 723 mmHg 16%
    14:00 +41°C° 0 mm 7 mps 722 mmHg 15%
    15:00 +41°C° 0 mm 6 mps 722 mmHg 15%
    16:00 +41°C° 0 mm 6 mps 722 mmHg 15%
    17:00 +40°C° 0 mm 6 mps 721 mmHg 16%
    18:00 +39°C° 0 mm 6 mps 722 mmHg 17%
    19:00 +39°C° 0 mm 6 mps 723 mmHg 19%
    20:00 +38°C° 0 mm 6 mps 723 mmHg 21%
    21:00 +36°C° 0 mm 6 mps 723 mmHg 23%
    22:00 +35°C° 0 mm 6 mps 723 mmHg 25%
    23:00 +34°C° 0 mm 6 mps 723 mmHg 26%

    23 January, Tuesday

    Time Temperature Precipitation Wind Pressure Humidity
    00:00 +34°C° 0 mm 5 mps 723 mmHg 27%
    01:00 +33°C° 0 mm 5 mps 723 mmHg 28%
    02:00 +33°C° 0 mm 4 mps 722 mmHg 28%
    03:00 +32°C° 0 mm 4 mps 723 mmHg 29%
    04:00 +31°C° 0 mm 3 mps 723 mmHg 30%
    05:00 +30°C° 0 mm 3 mps 723 mmHg 31%
    06:00 +33°C° 0 mm 5 mps 724 mmHg 29%
    07:00 +34°C° 0 mm 6 mps 725 mmHg 27%
    08:00 +35°C° 0 mm 8 mps 726 mmHg 24%
    09:00 +37°C° 0 mm 8 mps 725 mmHg 22%
    10:00 +38°C° 0 mm 8 mps 725 mmHg 20%
    11:00 +39°C° 0 mm 8 mps 724 mmHg 18%
    12:00 +40°C° 0 mm 7 mps 723 mmHg 17%
    13:00 +40°C° 0 mm 6 mps 722 mmHg 16%
    14:00 +41°C° 0 mm 5 mps 721 mmHg 16%
    15:00 +40°C° 0 mm 5 mps 721 mmHg 16%
    16:00 +40°C° 0 mm 5 mps 721 mmHg 16%
    17:00 +40°C° 0 mm 5 mps 721 mmHg 15%
    18:00 +39°C° 0 mm 5 mps 721 mmHg 17%
    19:00 +37°C° 0 mm 5 mps 722 mmHg 19%
    20:00 +36°C° 0 mm 5 mps 722 mmHg 21%
    21:00 +35°C° 0 mm 5 mps 722 mmHg 24%
    22:00 +35°C° 0 mm 5 mps 722 mmHg 27%
    23:00 +34°C° 0 mm 5 mps 722 mmHg 30%

    24 January, Wednesday

    Time Temperature Precipitation Wind Pressure Humidity
    00:00 +33°C° 0 mm 4 mps 722 mmHg 30%
    01:00 +32°C° 0 mm 4 mps 722 mmHg 30%
    02:00 +31°C° 0 mm 3 mps 721 mmHg 31%
    03:00 +30°C° 0 mm 3 mps 722 mmHg 31%
    04:00 +30°C° 0 mm 4 mps 722 mmHg 31%
    05:00 +30°C° 0 mm 4 mps 722 mmHg 31%
    06:00 +32°C° 0 mm 5 mps 723 mmHg 29%
    07:00 +33°C° 0 mm 7 mps 724 mmHg 27%
    08:00 +34°C° 0 mm 9 mps 724 mmHg 24%
    09:00 +35°C° 0 mm 9 mps 724 mmHg 23%
    10:00 +38°C° 0 mm 8 mps 724 mmHg 22%
    11:00 +39°C° 0 mm 8 mps 723 mmHg 20%
    12:00 +39°C° 0 mm 8 mps 723 mmHg 20%
    13:00 +40°C° 0 mm 8 mps 722 mmHg 20%
    14:00 +40°C° 0 mm 7 mps 721 mmHg 20%
    15:00 +40°C° 0 mm 7 mps 721 mmHg 21%
    16:00 +39°C° 0 mm 7 mps 721 mmHg 22%
    17:00 +39°C° 0 mm 7 mps 721 mmHg 23%
    18:00 +38°C° 0 mm 7 mps 722 mmHg 25%
    19:00 +36°C° 0 mm 7 mps 722 mmHg 26%
    20:00 +36°C° 0 mm 7 mps 722 mmHg 28%
    21:00 +35°C° 0 mm 6 mps 722 mmHg 30%
    22:00 +34°C° 0 mm 6 mps 722 mmHg 32%
    23:00 +34°C° 0 mm 6 mps 722 mmHg 34%

    25 January, Thursday

    Time Temperature Precipitation Wind Pressure Humidity
    00:00 +33°C° 0 mm 5 mps 722 mmHg 36%
    01:00 +32°C° 0 mm 5 mps 722 mmHg 38%
    02:00 +32°C° 0 mm 4 mps 721 mmHg 40%
    03:00 +30°C° 0 mm 3 mps 722 mmHg 41%
    04:00 +30°C° 0 mm 3 mps 722 mmHg 42%
    05:00 +29°C° 0 mm 3 mps 723 mmHg 43%
    06:00 +30°C° 0 mm 4 mps 723 mmHg 40%
    07:00 +33°C° 0 mm 6 mps 724 mmHg 37%
    08:00 +34°C° 0 mm 8 mps 725 mmHg 34%
    09:00 +35°C° 0 mm 8 mps 724 mmHg 31%
    10:00 +37°C° 0 mm 8 mps 724 mmHg 29%
    11:00 +38°C° 0 mm 8 mps 724 mmHg 26%
    12:00 +39°C° 0 mm 7 mps 723 mmHg 25%
    13:00 +39°C° 0 mm 6 mps 722 mmHg 23%
    14:00 +40°C° 0 mm 6 mps 721 mmHg 21%
    15:00 +40°C° 0 mm 5 mps 721 mmHg 21%
    16:00 +40°C° 0 mm 5 mps 721 mmHg 21%
    17:00 +40°C° 0 mm 5 mps 721 mmHg 21%
    18:00 +39°C° 0 mm 5 mps 721 mmHg 22%
    19:00 +37°C° 0 mm 5 mps 722 mmHg 24%
    20:00 +36°C° 0 mm 5 mps 722 mmHg 25%
    21:00 +35°C° 0 mm 5 mps 722 mmHg 27%
    22:00 +35°C° 0 mm 4 mps 722 mmHg 28%
    23:00 +34°C° 0 mm 4 mps 722 mmHg 30%
    Show more